Weather History for KLLJ - February, 2014

Change the Weather History Date:

Wednesday, February 5, 2014

  Actual Average Record
Temperature  
Mean Temperature -1 °F 22 °F  
Max Temperature 5 °F 32 °F 59 °F (1963)
Min Temperature -7 °F 11 °F -22 °F (1899)
Degree Days  
Heating Degree Days 66 43  
Month to date heating degree days 262 218  
Since 1 July heating degree days 4931 5140  
Cooling Degree Days 0 0  
Month to date cooling degree days 0 0  
Year to date cooling degree days 0 0  
Moisture  
Dew Point -9 °F    
Average Humidity 66    
Maximum Humidity 79    
Minimum Humidity 53    
Precipitation  
Precipitation T in 0.02 in 0.30 in (1919)
Month to date precipitation 0.05 0.12  
Year to date precipitation 0.28 0.63  
Sea Level Pressure  
Sea Level Pressure 30.35 in    
Wind  
Wind Speed 9 mph (NNW)    
Max Wind Speed 15 mph    
Max Gust Speed 19 mph    
Visibility 9 miles    
Events Snow    
T = Trace of Precipitation, MM = Missing Value Source: NWS Daily Summary

Daily Weather History Graph

Daily Weather History Graph

Search for Another Location

Airport or City:

Trip Planner

Search our weather history database for the weather conditions in past years. The results will help you decide how hot, cold, wet, or windy it might be!

Date:

Astronomy

Feb. 05, 2014 Rise Set
Actual Time 7:50 AM MST 5:51 PM MST
Civil Twilight 7:19 AM MST 6:22 PM MST
Nautical Twilight 6:45 AM MST 6:57 PM MST
Astronomical Twilight 6:11 AM MST 7:31 PM MST
Moon 10:50 AM MST (2/5) 12:05 AM MST (2/5)
Length of Visible Light 11h 02m
Length of Day
10h 01m
Waxing Crescent, 40% of the Moon is Illuminated
Feb 5
Waxing Crescent
Feb 6
First Quarter
Feb 14
Full
Feb 22
Last Quarter
Mar 1
New

Hourly Weather History & Observations

Time (MST) Temp. Windchill Dew Point Humidity Pressure Visibility Wind Dir Wind Speed Gust Speed Precip Events Conditions
12:55 AM 1.9 °F -9.2 °F -5.1 °F 72% 30.35 in 10.0 mi NW 5.8 mph - N/A   Mostly Cloudy
1:55 AM 1.9 °F -9.2 °F -4.0 °F 76% 30.35 in 9.0 mi NW 5.8 mph - 0.00 in   Overcast
2:55 AM 1.9 °F -10.6 °F -4.0 °F 76% 30.35 in 10.0 mi North 6.9 mph - N/A   Overcast
3:55 AM 1.9 °F -12.9 °F -4.0 °F 76% 30.34 in 6.0 mi North 9.2 mph - 0.00 in   Haze
4:55 AM 1.9 °F -12.9 °F -5.1 °F 72% 30.36 in 8.0 mi North 9.2 mph - 0.00 in   Overcast
5:55 AM -0.0 °F -14.2 °F -5.1 °F 79% 30.37 in 3.0 mi North 8.1 mph - 0.00 in Snow Light Snow
6:55 AM -2.0 °F -17.7 °F -8.0 °F 76% 30.38 in 10.0 mi NW 9.2 mph - 0.00 in   Overcast
7:19 AM -2.9 °F -17.7 °F -9.0 °F 75% 30.12 in 10.0 mi WNW 8.1 mph - N/A   Mostly Cloudy
7:32 AM -2.9 °F -16.5 °F -9.0 °F 75% 30.12 in 10.0 mi NW 6.9 mph - N/A   Overcast
7:55 AM -2.0 °F -16.6 °F -9.0 °F 72% 30.41 in 10.0 mi NNW 8.1 mph - N/A   Overcast
8:55 AM -2.0 °F -13.9 °F -9.9 °F 69% 30.43 in 10.0 mi NNW 5.8 mph - 0.00 in   Overcast
9:55 AM -0.0 °F -16.3 °F -11.0 °F 60% 30.44 in 10.0 mi North 10.4 mph - N/A   Clear
10:55 AM 1.0 °F -14.9 °F -9.9 °F 60% 30.44 in 10.0 mi North 10.4 mph - N/A   Scattered Clouds
11:55 AM 1.9 °F -11.8 °F -9.0 °F 60% 30.43 in 10.0 mi North 8.1 mph - N/A   Overcast
12:55 PM 3.9 °F -8.2 °F -8.0 °F 58% 30.39 in 10.0 mi NNE 6.9 mph - N/A   Overcast
1:55 PM 3.9 °F -8.2 °F -7.1 °F 60% 30.37 in 6.0 mi North 6.9 mph - N/A   Haze
2:06 PM 3.9 °F -10.4 °F -7.1 °F 60% 30.09 in 10.0 mi North 9.2 mph - N/A   Overcast
2:55 PM 5.0 °F -10.0 °F -7.1 °F 58% 30.34 in 10.0 mi North 10.4 mph - N/A   Overcast
3:55 PM 3.9 °F -12.2 °F -7.1 °F 60% 30.35 in 10.0 mi North 11.5 mph - 0.00 in   Overcast
4:55 PM 3.9 °F -11.3 °F -8.0 °F 58% 30.35 in 10.0 mi North 10.4 mph - N/A   Overcast
5:55 PM 1.9 °F -15.5 °F -9.9 °F 58% 30.38 in 10.0 mi NNW 12.7 mph - N/A   Overcast
6:55 PM 1.0 °F -16.6 °F -11.9 °F 55% 30.40 in 10.0 mi North 12.7 mph - N/A   Overcast
7:55 PM -0.0 °F -18.0 °F -13.0 °F 54% 30.41 in 10.0 mi North 12.7 mph - N/A   Overcast
8:45 PM -0.9 °F -16.4 °F -13.0 °F 57% 30.10 in 10.0 mi North 9.2 mph - N/A   Mostly Cloudy
8:55 PM -0.9 °F -17.4 °F -13.0 °F 57% 30.41 in 10.0 mi North 10.4 mph - N/A   Mostly Cloudy
9:55 PM -2.9 °F -15.0 °F -13.0 °F 62% 30.40 in 10.0 mi NNW 5.8 mph - N/A   Mostly Cloudy
10:55 PM -4.0 °F -17.8 °F -15.0 °F 59% 30.40 in 10.0 mi WNW 6.9 mph - N/A   Clear
11:55 PM -5.1 °F -17.6 °F -14.1 °F 65% 30.40 in 10.0 mi NNW 5.8 mph - N/A   Overcast